Location: Pacheco
(37.9835°N, 122.0752°W)
Time: 09:50:42
(UTC+00:00)

ATLAS 2AS CENTAUR R/B - Pass Details

Date: 13 April 2024
Orbit: 1016 x 1195 km, 63.7° (Epoch: 23 May)

Event Time Altitude Azimuth Distance (km) Brightness Sun altitude
Exits shadow 12:37:45 12° 226° (SW) 2,976 4.5 -11.6°
Maximum altitude 12:44:44 61° 306° (NW) 1,296 3.0 -10.3°
Drops below altitude 10° 12:51:52 10° 26° (NNE) 3,006 5.8 -9.0°
Sets 12:54:33 0° 30° (NNE) 3,942 6.5 -8.5°
